Time,TemperatureF,DewpointF,PressureIn,WindDirection,WindDirectionDegrees,WindSpeedMPH,WindSpeedGustMPH,Humidity,HourlyPrecipIn,Conditions,Clouds,dailyrainin,SoftwareType,DateUTC
2013-03-13 00:12:00,47.9,23.0,30.18,NNW,339,0.0,1.0,38,0.00,,,0.00,weatherlink.com 1.10,2013-03-13 05:12:00,
2013-03-13 00:27:00,47.3,23.0,30.18,NNW,339,0.0,1.0,39,0.00,,,0.00,weatherlink.com 1.10,2013-03-13 05:27:00,
2013-03-13 00:42:00,47.3,23.0,30.18,NNW,340,0.0,1.0,39,0.00,,,0.00,weatherlink.com 1.10,2013-03-13 05:42:00,
2013-03-13 00:57:00,46.2,23.0,30.19,NNW,339,0.0,1.0,40,0.00,,,0.00,weatherlink.com 1.10,2013-03-13 05:57:00,
2013-03-13 01:12:00,46.5,23.0,30.19,NNW,339,0.0,4.0,39,0.00,,,0.00,weatherlink.com 1.10,2013-03-13 06:12:00,
2013-03-13 01:27:00,45.0,22.0,30.19,NNW,339,1.0,2.0,40,0.00,,,0.00,weatherlink.com 1.10,2013-03-13 06:27:00,
2013-03-13 01:42:00,42.8,22.0,30.19,NNW,340,0.0,0.0,43,0.00,,,0.00,weatherlink.com 1.10,2013-03-13 06:42:00,
2013-03-13 01:57:00,42.7,22.0,30.20,NNW,340,0.0,1.0,44,0.00,,,0.00,weatherlink.com 1.10,2013-03-13 06:57:00,
2013-03-13 02:12:00,42.5,22.0,30.19,NNW,339,0.0,0.0,44,0.00,,,0.00,weatherlink.com 1.10,2013-03-13 07:12:00,
2013-03-13 02:27:00,42.5,22.0,30.20,NNW,340,0.0,0.0,44,0.00,,,0.00,weatherlink.com 1.10,2013-03-13 07:27:00,
2013-03-13 02:42:00,42.4,21.0,30.20,NNW,340,0.0,0.0,43,0.00,,,0.00,weatherlink.com 1.10,2013-03-13 07:42:00,
2013-03-13 02:57:00,41.6,21.0,30.20,NNW,339,0.0,0.0,44,0.00,,,0.00,weatherlink.com 1.10,2013-03-13 07:57:00,
2013-03-13 03:12:00,40.9,21.0,30.20,NNW,340,0.0,0.0,45,0.00,,,0.00,weatherlink.com 1.10,2013-03-13 08:12:00,
2013-03-13 03:27:00,41.2,22.0,30.19,NNW,339,0.0,0.0,46,0.00,,,0.00,weatherlink.com 1.10,2013-03-13 08:27:00,
2013-03-13 03:42:00,40.7,21.0,30.19,NNW,340,0.0,0.0,46,0.00,,,0.00,weatherlink.com 1.10,2013-03-13 08:42:00,
2013-03-13 03:57:00,40.1,21.0,30.19,NNW,339,0.0,0.0,47,0.00,,,0.00,weatherlink.com 1.10,2013-03-13 08:57:00,
2013-03-13 04:12:00,40.6,22.0,30.19,NNW,339,0.0,0.0,47,0.00,,,0.00,weatherlink.com 1.10,2013-03-13 09:12:00,
2013-03-13 04:27:00,40.3,21.0,30.19,NNW,339,0.0,1.0,47,0.00,,,0.00,weatherlink.com 1.10,2013-03-13 09:27:00,
2013-03-13 04:42:00,40.6,22.0,30.19,NNW,340,0.0,1.0,47,0.00,,,0.00,weatherlink.com 1.10,2013-03-13 09:42:00,
2013-03-13 04:57:00,41.4,21.0,30.19,NNW,339,0.0,0.0,45,0.00,,,0.00,weatherlink.com 1.10,2013-03-13 09:57:00,
2013-03-13 05:12:00,40.5,21.0,30.19,NNW,340,0.0,0.0,46,0.00,,,0.00,weatherlink.com 1.10,2013-03-13 10:12:00,
2013-03-13 05:27:00,39.2,21.0,30.19,NNW,339,0.0,0.0,48,0.00,,,0.00,weatherlink.com 1.10,2013-03-13 10:27:00,
2013-03-13 05:42:00,39.5,21.0,30.20,NNW,340,0.0,1.0,48,0.00,,,0.00,weatherlink.com 1.10,2013-03-13 10:42:00,
2013-03-13 05:57:00,39.5,21.0,30.20,NNW,339,0.0,0.0,48,0.00,,,0.00,weatherlink.com 1.10,2013-03-13 10:57:00,
2013-03-13 06:12:00,40.6,22.0,30.20,NNW,339,0.0,1.0,47,0.00,,,0.00,weatherlink.com 1.10,2013-03-13 11:12:00,
2013-03-13 06:27:00,39.7,21.0,30.20,NNW,340,0.0,0.0,48,0.00,,,0.00,weatherlink.com 1.10,2013-03-13 11:27:00,
2013-03-13 06:42:00,39.1,21.0,30.21,NNW,340,0.0,0.0,49,0.00,,,0.00,weatherlink.com 1.10,2013-03-13 11:42:00,
2013-03-13 06:57:00,38.8,21.0,30.21,NNW,340,0.0,0.0,49,0.00,,,0.00,weatherlink.com 1.10,2013-03-13 11:57:00,
2013-03-13 07:12:00,38.8,21.0,30.21,NNW,340,0.0,0.0,49,0.00,,,0.00,weatherlink.com 1.10,2013-03-13 12:12:00,
2013-03-13 07:27:00,38.8,21.0,30.22,NNW,340,0.0,0.0,50,0.00,,,0.00,weatherlink.com 1.10,2013-03-13 12:27:00,
2013-03-13 07:42:00,39.1,21.0,30.22,NNW,340,0.0,0.0,49,0.00,,,0.00,weatherlink.com 1.10,2013-03-13 12:42:00,
2013-03-13 07:57:00,39.3,21.0,30.23,NNW,339,0.0,0.0,49,0.00,,,0.00,weatherlink.com 1.10,2013-03-13 12:57:00,
2013-03-13 08:12:00,39.1,22.0,30.23,NNW,339,0.0,0.0,50,0.00,,,0.00,weatherlink.com 1.10,2013-03-13 13:12:00,
2013-03-13 08:27:00,38.9,22.0,30.24,NNW,340,0.0,0.0,50,0.00,,,0.00,weatherlink.com 1.10,2013-03-13 13:27:00,
2013-03-13 08:42:00,40.0,22.0,30.24,NNW,340,0.0,1.0,49,0.00,,,0.00,weatherlink.com 1.10,2013-03-13 13:42:00,
2013-03-13 08:58:00,39.8,22.0,30.25,NNW,340,0.0,0.0,50,0.00,,,0.00,weatherlink.com 1.10,2013-03-13 13:58:00,
2013-03-13 09:13:00,41.3,22.0,30.26,NNW,340,0.0,0.0,47,0.00,,,0.00,weatherlink.com 1.10,2013-03-13 14:13:00,
2013-03-13 09:28:00,43.5,23.0,30.27,NNW,340,0.0,0.0,44,0.00,,,0.00,weatherlink.com 1.10,2013-03-13 14:28:00,
2013-03-13 09:43:00,45.5,23.0,30.28,NNW,340,0.0,1.0,41,0.00,,,0.00,weatherlink.com 1.10,2013-03-13 14:43:00,
2013-03-13 09:58:00,47.4,23.0,30.29,NNW,340,0.0,1.0,39,0.00,,,0.00,weatherlink.com 1.10,2013-03-13 14:58:00,
2013-03-13 10:13:00,48.3,24.0,30.29,NNW,339,0.0,5.0,38,0.00,,,0.00,weatherlink.com 1.10,2013-03-13 15:13:00,
2013-03-13 10:28:00,49.9,23.0,30.30,NNW,339,3.0,4.0,35,0.00,,,0.00,weatherlink.com 1.10,2013-03-13 15:28:00,
2013-03-13 10:43:00,50.9,24.0,30.30,NNW,339,1.0,3.0,35,0.00,,,0.00,weatherlink.com 1.10,2013-03-13 15:43:00,
2013-03-13 10:58:00,52.8,25.0,30.30,NNW,340,2.0,4.0,34,0.00,,,0.00,weatherlink.com 1.10,2013-03-13 15:58:00,
2013-03-13 11:13:00,53.8,24.0,30.30,NNW,340,0.0,4.0,32,0.00,,,0.00,weatherlink.com 1.10,2013-03-13 16:13:00,
2013-03-13 11:28:00,56.1,25.0,30.30,NNW,340,1.0,3.0,30,0.00,,,0.00,weatherlink.com 1.10,2013-03-13 16:28:00,
2013-03-13 11:43:00,57.7,25.0,30.30,NNW,340,2.0,3.0,29,0.00,,,0.00,weatherlink.com 1.10,2013-03-13 16:43:00,
2013-03-13 11:58:00,59.3,25.0,30.30,NNW,340,2.0,5.0,27,0.00,,,0.00,weatherlink.com 1.10,2013-03-13 16:58:00,
2013-03-13 12:13:00,61.1,25.0,30.29,NNW,329,3.0,7.0,25,0.00,,,0.00,weatherlink.com 1.10,2013-03-13 17:13:00,
2013-03-13 12:29:00,62.0,26.0,30.29,NW,324,5.0,7.0,25,0.00,,,0.00,weatherlink.com 1.10,2013-03-13 17:29:00,
2013-03-13 12:44:00,63.7,25.0,30.28,NW,325,0.0,7.0,23,0.00,,,0.00,weatherlink.com 1.10,2013-03-13 17:44:00,
2013-03-13 12:59:00,64.5,26.0,30.28,NNW,329,6.0,7.0,23,0.00,,,0.00,weatherlink.com 1.10,2013-03-13 17:59:00,
2013-03-13 13:14:00,66.6,24.0,30.27,NNW,328,2.0,6.0,20,0.00,,,0.00,weatherlink.com 1.10,2013-03-13 18:14:00,
2013-03-13 13:29:00,67.7,25.0,30.26,NNW,328,4.0,5.0,20,0.00,,,0.00,weatherlink.com 1.10,2013-03-13 18:29:00,
2013-03-13 13:44:00,68.9,21.0,30.25,ESE,118,3.0,10.0,16,0.00,,,0.00,weatherlink.com 1.10,2013-03-13 18:44:00,
2013-03-13 13:59:00,70.7,22.0,30.24,SE,132,4.0,10.0,16,0.00,,,0.00,weatherlink.com 1.10,2013-03-13 18:59:00,
2013-03-13 14:14:00,69.7,20.0,30.23,South,180,2.0,7.0,15,0.00,,,0.00,weatherlink.com 1.10,2013-03-13 19:14:00,
2013-03-13 14:29:00,70.5,21.0,30.22,South,170,0.0,8.0,15,0.00,,,0.00,weatherlink.com 1.10,2013-03-13 19:29:00,
2013-03-13 14:44:00,71.5,18.0,30.21,SW,223,0.0,9.0,13,0.00,,,0.00,weatherlink.com 1.10,2013-03-13 19:44:00,
2013-03-13 14:59:00,72.9,19.0,30.20,SW,232,5.0,11.0,13,0.00,,,0.00,weatherlink.com 1.10,2013-03-13 19:59:00,
2013-03-13 15:14:00,72.4,17.0,30.19,WSW,243,4.0,8.0,12,0.00,,,0.00,weatherlink.com 1.10,2013-03-13 20:14:00,
2013-03-13 15:29:00,73.6,14.0,30.19,WSW,238,1.0,6.0,10,0.00,,,0.00,weatherlink.com 1.10,2013-03-13 20:29:00,
2013-03-13 15:44:00,73.1,17.0,30.18,WSW,250,2.0,10.0,12,0.00,,,0.00,weatherlink.com 1.10,2013-03-13 20:44:00,
2013-03-13 15:59:00,73.8,11.0,30.17,WSW,255,1.0,14.0,9,0.00,,,0.00,weatherlink.com 1.10,2013-03-13 20:59:00,
2013-03-13 16:14:00,73.5,16.0,30.17,WSW,250,2.0,8.0,11,0.00,,,0.00,weatherlink.com 1.10,2013-03-13 21:14:00,
2013-03-13 16:29:00,75.3,15.0,30.16,WSW,250,0.0,4.0,10,0.00,,,0.00,weatherlink.com 1.10,2013-03-13 21:29:00,
2013-03-13 16:44:00,74.2,14.0,30.16,SSW,212,4.0,11.0,10,0.00,,,0.00,weatherlink.com 1.10,2013-03-13 21:44:00,
2013-03-13 16:59:00,73.3,13.0,30.16,SE,132,5.0,10.0,10,0.00,,,0.00,weatherlink.com 1.10,2013-03-13 21:59:00,
2013-03-13 17:14:00,73.9,11.0,30.15,South,180,6.0,13.0,9,0.00,,,0.00,weatherlink.com 1.10,2013-03-13 22:14:00,
2013-03-13 17:29:00,73.2,13.0,30.15,South,169,8.0,10.0,10,0.00,,,0.00,weatherlink.com 1.10,2013-03-13 22:29:00,
2013-03-13 17:59:00,72.2,13.0,30.15,SE,138,3.0,9.0,10,0.00,,,0.00,weatherlink.com 1.10,2013-03-13 22:59:00,
2013-03-13 18:14:00,72.1,12.0,30.14,SE,132,1.0,9.0,10,0.00,,,0.00,weatherlink.com 1.10,2013-03-13 23:14:00,
2013-03-13 18:29:00,72.5,10.0,30.14,SSE,160,1.0,9.0,9,0.00,,,0.00,weatherlink.com 1.10,2013-03-13 23:29:00,
2013-03-13 18:44:00,71.7,12.0,30.14,SSE,150,7.0,9.0,10,0.00,,,0.00,weatherlink.com 1.10,2013-03-13 23:44:00,
2013-03-13 18:59:00,70.6,11.0,30.14,ESE,121,4.0,10.0,10,0.00,,,0.00,weatherlink.com 1.10,2013-03-13 23:59:00,
2013-03-13 19:14:00,70.3,11.0,30.14,ESE,119,4.0,8.0,10,0.00,,,0.00,weatherlink.com 1.10,2013-03-14 00:14:00,
2013-03-13 19:29:00,69.4,10.0,30.14,ESE,119,5.0,8.0,10,0.00,,,0.00,weatherlink.com 1.10,2013-03-14 00:29:00,
2013-03-13 19:44:00,68.3,10.0,30.14,ESE,121,5.0,9.0,10,0.00,,,0.00,weatherlink.com 1.10,2013-03-14 00:44:00,
2013-03-13 19:59:00,66.7,10.0,30.14,SE,131,3.0,7.0,11,0.00,,,0.00,weatherlink.com 1.10,2013-03-14 00:59:00,
2013-03-13 20:14:00,64.7,13.0,30.14,SE,126,5.0,10.0,13,0.00,,,0.00,weatherlink.com 1.10,2013-03-14 01:14:00,
2013-03-13 20:29:00,63.2,15.0,30.14,SE,126,6.0,8.0,15,0.00,,,0.00,weatherlink.com 1.10,2013-03-14 01:29:00,
2013-03-13 20:44:00,62.1,14.0,30.14,SE,126,5.0,8.0,15,0.00,,,0.00,weatherlink.com 1.10,2013-03-14 01:44:00,
2013-03-13 20:59:00,61.5,15.0,30.14,ESE,120,9.0,12.0,16,0.00,,,0.00,weatherlink.com 1.10,2013-03-14 01:59:00,
2013-03-13 21:14:00,60.8,15.0,30.15,ESE,115,4.0,12.0,17,0.00,,,0.00,weatherlink.com 1.10,2013-03-14 02:14:00,
2013-03-13 21:29:00,60.0,15.0,30.15,ESE,115,4.0,10.0,17,0.00,,,0.00,weatherlink.com 1.10,2013-03-14 02:29:00,
2013-03-13 21:44:00,59.3,14.0,30.15,ESE,113,5.0,11.0,17,0.00,,,0.00,weatherlink.com 1.10,2013-03-14 02:44:00,
2013-03-13 21:59:00,58.7,15.0,30.16,ESE,117,10.0,10.0,18,0.00,,,0.00,weatherlink.com 1.10,2013-03-14 02:59:00,
2013-03-13 22:14:00,57.9,16.0,30.16,ESE,119,7.0,13.0,19,0.00,,,0.00,weatherlink.com 1.10,2013-03-14 03:14:00,
2013-03-13 22:45:00,57.0,17.0,30.17,ESE,117,5.0,13.0,21,0.00,,,0.00,weatherlink.com 1.10,2013-03-14 03:45:00,
2013-03-13 23:15:00,57.2,20.0,30.18,ESE,117,10.0,14.0,23,0.00,,,0.00,weatherlink.com 1.10,2013-03-14 04:15:00,
2013-03-13 23:30:00,56.7,20.0,30.18,SE,129,6.0,9.0,24,0.00,,,0.00,weatherlink.com 1.10,2013-03-14 04:30:00,
2013-03-13 23:45:00,56.5,20.0,30.18,ESE,122,2.0,12.0,24,0.00,,,0.00,weatherlink.com 1.10,2013-03-14 04:45:00,